Time,TemperatureF,DewpointF,PressureIn,WindDirection,WindDirectionDegrees,WindSpeedMPH,WindSpeedGustMPH,Humidity,HourlyPrecipIn,Conditions,Clouds,dailyrainin,SoftwareType,DateUTC
2013-09-21 00:14:00,74.1,73.8,29.83,NNE,22,2.2,-999.0,99,-99.99,,,0.00,Acu-Link.com,2013-09-21 05:14:00,
2013-09-21 00:30:00,73.6,73.3,29.84,NNE,22,1.6,-999.0,99,-99.99,,,0.00,Acu-Link.com,2013-09-21 05:30:00,
2013-09-21 00:45:00,73.4,73.1,29.83,North,0,1.1,-999.0,99,-99.99,,,0.00,Acu-Link.com,2013-09-21 05:45:00,
2013-09-21 01:00:00,73.4,73.1,29.84,NW,315,0.0,-999.0,99,-99.99,,,0.00,Acu-Link.com,2013-09-21 06:00:00,
2013-09-21 01:16:00,73.0,72.7,29.84,ENE,67,4.3,-999.0,99,-99.99,,,0.00,Acu-Link.com,2013-09-21 06:16:00,
2013-09-21 01:31:00,73.0,72.7,29.84,NE,45,0.0,-999.0,99,-99.99,,,0.00,Acu-Link.com,2013-09-21 06:31:00,
2013-09-21 01:46:00,73.0,72.7,29.84,East,90,2.7,-999.0,99,-99.99,,,0.00,Acu-Link.com,2013-09-21 06:46:00,
2013-09-21 02:02:00,73.0,72.7,29.84,ENE,67,2.2,-999.0,99,-99.99,,,0.00,Acu-Link.com,2013-09-21 07:02:00,
2013-09-21 09:59:00,73.4,73.1,29.84,North,0,3.1,-999.0,99,-99.99,,,0.00,Acu-Link.com,2013-09-21 14:59:00,
2013-09-21 10:14:00,72.9,72.0,29.85,NE,45,3.8,-999.0,97,-99.99,,,0.00,Acu-Link.com,2013-09-21 15:14:00,
2013-09-21 10:29:00,72.7,71.8,29.85,NNE,22,3.8,-999.0,97,-99.99,,,0.00,Acu-Link.com,2013-09-21 15:29:00,
2013-09-21 10:44:00,72.7,71.8,29.85,West,270,3.8,-999.0,97,-99.99,,,0.00,Acu-Link.com,2013-09-21 15:44:00,
2013-09-21 11:00:00,73.2,72.0,29.86,ESE,112,3.8,-999.0,96,-99.99,,,0.00,Acu-Link.com,2013-09-21 16:00:00,
2013-09-21 11:15:00,73.2,71.7,29.86,NNE,22,2.7,-999.0,95,-99.99,,,0.00,Acu-Link.com,2013-09-21 16:15:00,
2013-09-21 11:30:00,73.4,71.9,29.86,NE,45,4.7,-999.0,95,-99.99,,,0.00,Acu-Link.com,2013-09-21 16:30:00,
2013-09-21 11:45:00,74.8,72.7,29.86,NNE,22,4.7,-999.0,93,-99.99,,,0.00,Acu-Link.com,2013-09-21 16:45:00,
2013-09-21 12:00:00,75.0,72.5,29.85,North,0,4.7,-999.0,92,-99.99,,,0.00,Acu-Link.com,2013-09-21 17:00:00,
2013-09-21 12:15:00,75.6,73.1,29.86,North,0,2.7,-999.0,92,-99.99,,,0.00,Acu-Link.com,2013-09-21 17:15:00,
2013-09-21 12:31:00,75.0,72.5,29.86,North,0,4.3,-999.0,92,-99.99,,,0.00,Acu-Link.com,2013-09-21 17:31:00,
2013-09-21 12:46:00,74.7,72.2,29.86,NNE,22,4.3,-999.0,92,-99.99,,,0.00,Acu-Link.com,2013-09-21 17:46:00,
2013-09-21 13:01:00,74.8,72.0,29.86,North,0,3.8,-999.0,91,-99.99,,,0.00,Acu-Link.com,2013-09-21 18:01:00,
2013-09-21 13:17:00,75.4,72.6,29.85,NNE,22,4.3,-999.0,91,-99.99,,,0.00,Acu-Link.com,2013-09-21 18:17:00,
2013-09-21 13:32:00,75.4,71.9,29.85,ESE,112,4.3,-999.0,89,-99.99,,,0.00,Acu-Link.com,2013-09-21 18:32:00,
2013-09-21 13:47:00,75.0,71.9,29.85,North,0,4.3,-999.0,90,-99.99,,,0.00,Acu-Link.com,2013-09-21 18:47:00,
2013-09-21 14:02:00,75.4,72.2,29.84,NNW,337,4.3,-999.0,90,-99.99,,,0.00,Acu-Link.com,2013-09-21 19:02:00,
2013-09-21 14:18:00,74.8,71.7,29.84,North,0,6.3,-999.0,90,-99.99,,,0.00,Acu-Link.com,2013-09-21 19:18:00,
2013-09-21 14:33:00,74.3,71.5,29.84,North,0,5.8,-999.0,91,-99.99,,,0.00,Acu-Link.com,2013-09-21 19:33:00,
2013-09-21 14:48:00,74.3,71.8,29.84,North,0,5.1,-999.0,92,-99.99,,,0.00,Acu-Link.com,2013-09-21 19:48:00,
2013-09-21 15:03:00,74.1,71.6,29.83,NE,45,4.3,-999.0,92,-99.99,,,0.00,Acu-Link.com,2013-09-21 20:03:00,
2013-09-21 15:19:00,74.1,71.6,29.83,NNE,22,3.8,-999.0,92,-99.99,,,0.00,Acu-Link.com,2013-09-21 20:19:00,
2013-09-21 15:34:00,74.3,72.1,29.83,NE,45,2.7,-999.0,93,-99.99,,,0.00,Acu-Link.com,2013-09-21 20:34:00,
2013-09-21 15:49:00,73.9,71.5,29.82,NNE,22,4.3,-999.0,92,-99.99,,,0.00,Acu-Link.com,2013-09-21 20:49:00,
2013-09-21 16:04:00,73.0,71.2,29.83,North,0,4.3,-999.0,94,-99.99,,,0.00,Acu-Link.com,2013-09-21 21:04:00,
2013-09-21 16:20:00,72.9,71.0,29.82,NNE,22,3.8,-999.0,94,-99.99,,,0.00,Acu-Link.com,2013-09-21 21:20:00,
2013-09-21 16:35:00,72.7,70.8,29.83,NNE,22,4.3,-999.0,94,-99.99,,,0.00,Acu-Link.com,2013-09-21 21:35:00,
2013-09-21 16:50:00,72.7,71.2,29.83,North,0,2.7,-999.0,95,-99.99,,,0.00,Acu-Link.com,2013-09-21 21:50:00,
2013-09-21 17:05:00,72.0,70.4,29.83,NNE,22,4.3,-999.0,95,-99.99,,,0.00,Acu-Link.com,2013-09-21 22:05:00,
2013-09-21 17:20:00,71.8,70.6,29.83,NNE,22,4.3,-999.0,96,-99.99,,,0.00,Acu-Link.com,2013-09-21 22:20:00,
2013-09-21 17:35:00,71.8,70.6,29.83,NNE,22,3.8,-999.0,96,-99.99,,,0.00,Acu-Link.com,2013-09-21 22:35:00,
2013-09-21 17:50:00,71.8,70.6,29.83,ENE,67,1.6,-999.0,96,-99.99,,,0.00,Acu-Link.com,2013-09-21 22:50:00,
2013-09-21 18:06:00,72.0,70.8,29.84,NE,45,2.7,-999.0,96,-99.99,,,0.00,Acu-Link.com,2013-09-21 23:06:00,
2013-09-21 18:21:00,71.6,70.4,29.84,ENE,67,2.7,-999.0,96,-99.99,,,0.00,Acu-Link.com,2013-09-21 23:21:00,
2013-09-21 18:36:00,71.6,70.7,29.84,West,270,2.7,-999.0,97,-99.99,,,0.00,Acu-Link.com,2013-09-21 23:36:00,
2013-09-21 18:52:00,71.4,70.5,29.84,West,270,0.0,-999.0,97,-99.99,,,0.00,Acu-Link.com,2013-09-21 23:52:00,
2013-09-21 22:03:00,71.1,70.8,29.87,North,0,2.2,-999.0,99,-99.99,,,0.00,Acu-Link.com,2013-09-22 03:03:00,
2013-09-21 22:18:00,71.1,70.8,29.87,North,0,1.1,-999.0,99,-99.99,,,0.00,Acu-Link.com,2013-09-22 03:18:00,
2013-09-21 22:33:00,71.1,70.5,29.88,NE,45,2.2,-999.0,98,-99.99,,,0.00,Acu-Link.com,2013-09-22 03:33:00,
2013-09-21 23:43:00,70.9,70.3,29.88,North,0,2.2,-999.0,98,-99.99,,,0.00,Acu-Link.com,2013-09-22 04:43:00,
2013-09-21 23:58:00,70.5,69.6,29.88,NNE,22,2.7,-999.0,97,-99.99,,,0.00,Acu-Link.com,2013-09-22 04:58:00,